SCP
0 0 0 0 0 0 0 0 0 0 0 0 0 0 0 0 0 0 0 0 0 0 0 0 0 0 0 0 0 0 0 0 0 0 0 0 0 0 0 0 0 0 0 0
0 0 0 0 0 0 0 0 0 0 0 0 0 0 0 0 0 0 0 0 0 0 0 0 0 0 0 0 0 0 0 0 0 0 0 0 0 0 0 0 0 0 0 0
0 0 0 0 0 0 0 0 0 0 0 0 0 0 0 0 0 0 0 0 0 0 0 0 0 0 0 0 0 0 0 0 0 0 0 0 0 0 0 0 0 0 0 0
0 0 0 0 0 0 0 0 0 0 0 0 0 0 0 0 0 0 0 0 0 0 0 0 0 0 0 0 0 0 0 0 0 0 0 0 0 0 0 0 0 0 0 0
0 0 0 0 0 0 0 0 0 0 0 0 0 0 0 0 0 0 0 0 0 0 0 0 0 0 0 0 0 0 0 0 0 0 0 0 0 0 0 0 0 0 0 0
0 0 0 0 0 0 0 0 0 0 0 0 0 0 0 0 0 0 0 0 0 0 0 0 0 0 0 0 0 0 0 0 0 0 0 0 0 0 0 0 0 0 0 0
0 0 0 0 0 0 0 0 0 0 0 0 0 0 0 0 0 0 0 0 0 0 0 0 0 0 0 0 0 0 0 0 0 0 0 0 0 0 0 0 0 0 0 0
0 0 0 0 0 0 0 0 0 0 0 0 0 0 0 0 0 0 0 0 0 0 0 0 0 0 0 0 0 0 0 0 0 0 0 0 0 0 0 0 0 0 0 0
0 0 0 0 0 0 0 0 0 0 0 0 0 0 0 0 0 0 0 0 0 0 0 0 0 0 0 0 0 0 0 0 0 0 0 0 0 0 0 0 0 0 0 0
0 0 0 0 0 0 0 0 0 0 0 0 0 0 0 0 0 0 0 0 0 0 0 0 0 0 0 0 0 0 0 0 0 0 0 0 0 0 0 0 0 0 0 0
0 0 0 0 0 0 0 0 0 0 0 0 0 0 0 0 0 0 0 0 0 0 0 0 0 0 0 0 0 0 0 0 0 0 0 0 0 0 0 0 0 0 0 0
0 0 0 0 0 0 0 0 0 0 0 0 0 0 0 0 0 0 0 0 0 0 0 0 0 0 0 0 0 0 0 0 0 0 0 0 0 0 0 0 0 0 0 0
0 0 0 0 0 0 0 -0 0 0 0 0 0 0 0 0 0 0 0 0 0 0 0 0 0 0 0 0 0 0 0 0 0 0 0 0 0 0 0 0 0 0 0 0
0 0 0 0 0 0 0 0 0 0 0 0 0 0 0 0 0 0 0 0 0 0 0 0 0 0 0 0 0 0 0 0 0 0 0 0 0 0 0 0 0 0 0 0
0 0 0 0 0 0 0 0 0 0 0 0 -0 0 0 0 0 0 0 0 0 0 0 0 0 0 0 0 0 0 0 0 0 0 0 0 0 0 0 0 0 0 0 0
0 0 0 0 0 0 0 0 0 0 0 0 0 0 0 0 0 0 0 0 0 0 0 0 0 0 0 0 0 0 0 0 0 0 0 0 0 0 0 0 0 0 0 0
0 0 0 0 0 0 0 0 0 0 0 0 0 0 0 0 0 0 0 0 0 0 0 0 0 0 0 0 0 0 0 0 0 0 0 0 0 0 0 0 0 0 0 0
0 0 0 0 0 0 0 0 0 0 0 0 0 0 0 0 0 0 0 0 0 0 0 0 0 0 0 0 0 0 0 0 0 0 0 0 0 0 0 0 0 0 0 0
0 0 0 0 0 0 -0 0 0 0 0 -0 -0 -0 0 0 0 -0 0 0 0 0 0 0 0 0 0 0 0 0 0 0 0 0 0 0 0 0 0 0 0 0 0 0
0 0 0 0 0 -0 -0 0 0 0 0 0 0 -0 0 0 0 0 0 0 0 0 0 0 0 0 0 0 0 0 0 0 0 0 0 0 0 0 0 0 0 0 0 0
0 0 0 0 0 0 0 0 0 0 0 0 0 0 0 0 0 0 0 0 0 0 0 0 0 0 0 0 0 0 0 0 0 0 0 0 0 0 0 0 0 0 0 0
0 0 0 0 0 0 0 0 0 0 0 0 0 0 0 0 0 0 0 0 0 0 0 0 0 0 0 0 0 0 0 0 0 0 0 0 0 0 0 0 0 0 0 0
0 0 0 0 0 0 0 0 0 0 0 0 0 0 0 0 0 0 0 0 0 0 0 0 0 0 0 0 0 0 0 0 0 0 0 0 0 0 0 0 0 0 0 0
0 0 0 0 0 0 0 0 0 0 0 0 0 0 0 0 0 0 0 0 0 0 0 0 0 0 0 0 0 0 0 0 0 0 0 0 0 0 0 0 0 0 0 0
0 0 0 0 0 0 0 0 0 0 0 0 0 0 0 0 0 0 0 0 0 0 0 0 0 0 0 0 0 0 0 0 0 0 0 0 0 0 0 0 0 0 0 0
0 0 0 0 0 0 0 0 0 0 0 0 0 0 0 0 0 0 0 0 0 0 0 0 0 0 0 0 0 0 0 0 0 0 0 0 0 0 0 0 0 0 0 0
Wind_Speed_500mb
8 9 13 27 7 7 27 23 22 6 8 6 2 6 8 6 20 18 18 27 25 24 25 34 30 27 25 20 18 18 23 23 25 24 27 28 29 29 31 31 33 35 40 38
9 8 3 6 12 9 15 21 9 8 3 3 6 7 4 4 9 12 22 28 31 30 28 30 32 34 30 25 21 25 26 19 20 24 26 28 30 31 33 32 33 34 29 32
13 3 3 7 10 9 5 21 14 14 8 11 11 4 9 3 14 17 13 16 21 24 26 26 27 28 30 30 31 29 27 25 26 21 20 23 27 29 31 32 31 30 30 31
11 13 3 18 10 0 10 9 24 34 23 9 3 9 11 8 6 5 11 17 23 32 29 26 24 23 21 19 19 19 18 20 23 24 22 22 23 27 29 31 32 32 35 36
2 11 10 15 3 3 2 12 19 17 11 9 7 5 3 12 10 7 13 31 38 39 39 38 33 28 26 22 17 13 9 6 5 8 12 16 22 26 26 28 29 30 31 33
9 5 8 4 21 16 21 31 25 12 7 2 7 4 8 13 14 10 22 37 36 36 33 29 27 24 20 16 11 8 4 3 5 6 7 10 13 17 21 25 30 33 36 36
8 11 11 8 19 16 10 8 5 6 1 5 9 6 14 28 15 30 38 46 38 33 30 27 22 18 14 9 2 4 6 7 10 11 13 15 18 21 25 30 35 38 40 40
6 4 5 8 4 11 7 3 7 10 8 6 6 12 9 11 40 53 59 52 40 36 31 27 21 16 10 5 3 5 8 12 12 13 15 19 23 26 29 33 36 39 44 47
9 6 6 2 5 3 9 7 1 6 3 5 8 9 6 10 16 43 53 50 45 42 36 26 20 14 10 8 6 4 7 10 12 15 18 20 23 27 31 34 38 42 45 50
6 9 2 4 5 6 5 5 5 2 7 8 7 7 9 23 33 34 39 50 49 42 35 26 19 15 14 10 7 6 7 17 16 17 19 22 25 28 30 32 36 39 43 47
6 3 3 4 5 10 3 2 2 1 7 10 7 11 9 42 41 44 50 52 56 50 40 28 22 18 17 15 12 4 10 19 17 18 21 24 26 29 33 38 42 47 49 52
12 8 5 5 2 3 5 9 13 7 9 4 1 10 2 19 43 54 51 59 54 50 41 30 24 20 21 19 14 6 13 17 16 19 26 28 32 37 42 46 50 54 58 58
9 1 5 4 3 4 8 8 8 1 4 10 8 8 9 9 32 51 56 73 63 53 43 37 32 28 25 21 15 10 14 18 19 23 30 34 39 45 52 56 59 61 65 67
5 5 9 9 6 3 9 11 13 10 5 6 11 10 3 5 19 34 52 76 67 60 49 41 36 31 28 23 19 17 17 20 23 28 34 39 45 51 58 64 67 69 71 74
6 9 4 3 3 0 4 9 13 20 21 12 6 17 10 17 23 52 65 73 67 61 53 48 41 35 33 28 22 22 22 21 27 34 40 46 52 58 65 70 73 75 76 77
2 3 4 5 3 3 8 13 14 12 15 18 16 27 12 24 32 38 60 74 71 67 61 54 44 37 36 30 24 24 23 24 31 39 45 51 59 66 72 76 78 80 83 84
8 10 5 8 6 9 13 19 28 16 15 23 31 39 13 10 26 48 62 77 77 75 66 55 48 40 35 30 25 24 25 30 37 45 51 58 67 75 77 79 82 83 85 87
10 9 5 5 7 6 14 5 8 25 29 29 23 13 29 30 51 56 71 81 77 73 64 56 45 39 33 27 25 24 29 34 44 51 58 65 72 75 77 80 82 84 87 91
4 9 6 8 7 14 17 12 14 14 18 33 46 35 26 32 29 44 57 70 72 73 61 49 37 32 30 27 24 28 33 39 49 55 64 66 70 75 78 81 84 87 92 94
6 10 8 6 10 14 13 2 11 12 18 13 38 35 35 35 11 27 57 53 58 53 44 39 36 34 29 26 30 34 38 47 52 60 63 63 66 72 79 84 88 92 94 98
7 1 12 6 7 18 20 13 14 10 12 15 13 39 45 23 32 14 27 51 48 43 34 34 36 28 26 29 35 40 46 52 56 60 62 64 69 76 81 87 90 95 97 97
17 15 8 6 5 18 28 15 17 11 10 16 11 27 61 58 24 21 19 24 42 46 42 39 35 28 27 32 39 44 51 54 56 58 62 69 76 80 85 91 93 88 90 92
6 15 11 19 15 5 56 6 37 8 16 21 23 8 31 53 50 34 37 33 33 35 38 37 33 32 29 34 39 47 48 52 54 60 69 75 80 87 88 87 86 86 83 82
9 16 6 4 12 24 26 51 38 38 39 29 23 19 13 27 40 38 35 34 30 31 35 35 34 32 30 33 39 45 47 51 58 68 74 81 88 88 84 79 74 72 71 73
10 20 12 11 13 27 36 51 62 57 49 46 39 28 23 24 35 43 39 36 32 32 36 34 32 30 33 36 38 40 44 52 62 69 78 82 81 81 77 69 65 63 61 57
24 17 14 13 30 36 35 33 30 37 50 60 54 41 36 38 38 44 42 37 35 33 35 33 30 32 35 34 35 37 45 54 65 72 73 75 75 71 67 67 68 58 54 50
Wind_Direction_500mb
62 107 161 169 113 112 147 136 131 128 159 141 90 79 344 108 111 105 117 177 179 186 193 202 198 210 226 241 251 255 268 270 266 284 289 295 303 304 306 307 308 307 305 305
71 105 94 93 97 102 141 140 113 75 345 106 135 88 14 33 87 127 129 137 148 145 156 183 199 200 210 238 239 248 263 265 269 279 287 290 293 299 304 310 311 308 307 305
97 108 131 152 120 137 161 173 168 138 133 34 112 333 253 9 111 111 127 154 163 163 165 169 180 193 207 218 233 245 257 257 262 261 272 282 291 295 303 306 306 309 310 309
54 342 168 115 85 207 152 294 160 146 158 173 234 216 229 191 195 136 152 166 156 151 153 157 166 186 201 215 226 229 235 249 260 268 270 270 274 288 295 298 302 309 308 308
23 6 65 82 61 120 107 135 134 137 114 126 202 203 235 160 211 194 180 154 142 135 135 133 132 130 130 134 141 140 139 151 218 266 281 282 279 301 321 324 318 319 321 320
66 27 41 64 65 85 121 91 55 62 51 244 175 187 227 195 184 174 183 162 151 145 143 139 137 138 140 135 131 130 114 40 14 358 341 331 328 330 332 333 333 332 332 331
45 29 335 65 78 27 93 83 67 43 17 235 161 165 256 207 180 170 179 173 165 159 155 152 151 149 149 151 119 14 10 18 30 23 14 3 354 347 341 338 334 332 329 326
132 151 336 325 120 161 145 47 140 151 188 183 158 221 245 220 172 176 176 171 168 164 163 161 161 162 167 170 149 101 64 42 27 11 360 350 343 336 333 331 328 325 323 322
144 101 309 307 347 150 178 182 304 102 41 117 199 275 299 131 151 172 180 181 184 180 173 169 172 175 181 175 158 99 63 33 360 345 339 334 331 331 334 336 334 331 328 325
145 119 254 281 225 81 62 108 148 265 148 216 234 252 233 183 182 182 190 190 185 182 180 182 187 194 196 198 200 151 45 3 1 4 360 353 348 345 343 341 338 335 334 331
151 39 98 52 212 180 108 157 193 142 196 185 191 249 226 190 184 190 192 188 186 188 189 195 201 205 210 218 205 198 340 350 359 3 358 350 347 345 345 345 342 338 336 333
211 121 133 189 253 202 252 204 187 181 202 232 220 274 99 203 193 188 186 189 193 198 195 205 213 220 222 222 213 248 329 336 342 349 346 344 342 341 339 338 336 333 330 329
169 65 85 30 291 78 236 212 221 171 80 211 157 256 352 121 175 189 179 191 197 196 202 210 217 227 227 222 228 260 311 323 328 335 335 336 335 333 331 329 327 325 324 324
152 143 182 186 148 90 194 209 201 187 171 190 231 294 332 176 173 180 189 195 196 198 206 216 224 230 230 229 239 260 293 312 318 326 330 330 330 328 324 321 320 320 319 317
149 180 138 137 102 202 251 244 203 205 220 202 262 221 210 204 194 193 192 194 194 202 210 219 227 233 230 230 243 263 282 302 312 321 323 325 323 320 317 317 317 316 314 313
38 190 114 314 336 319 265 239 236 246 249 256 267 265 221 233 205 185 192 192 199 205 214 221 229 233 230 234 247 260 277 296 309 317 321 319 317 315 315 315 315 316 316 315
126 132 94 265 350 335 306 225 207 210 211 211 225 240 169 196 189 194 195 198 205 210 217 222 230 236 234 237 254 264 281 293 304 313 317 314 314 314 315 316 316 318 319 318
128 101 85 209 20 322 246 237 214 227 245 227 254 199 189 204 209 212 212 205 211 217 222 228 230 230 229 244 257 273 285 295 304 313 313 313 314 314 316 316 319 321 321 319
20 122 104 142 189 297 289 225 190 180 271 222 231 229 204 208 217 234 220 218 225 227 224 229 227 226 230 254 266 276 286 297 304 311 311 314 313 315 317 319 320 320 317 317
47 47 117 102 145 217 239 158 177 149 283 230 219 215 186 153 190 237 219 212 220 217 218 220 220 217 246 261 272 282 294 298 310 309 310 313 315 315 316 317 317 317 315 314
144 151 172 178 213 286 236 178 155 89 245 323 247 208 170 193 213 223 213 211 212 210 219 218 211 235 255 264 277 288 298 309 308 310 312 314 314 314 314 315 315 315 316 317
171 161 183 97 110 270 153 120 172 227 314 326 355 201 203 209 203 201 161 190 212 220 214 212 224 247 260 273 286 297 305 306 308 309 312 313 313 313 314 315 317 320 321 322
227 186 184 188 205 248 182 205 202 298 316 337 336 307 217 218 216 218 223 200 187 198 206 218 235 249 263 276 290 297 302 305 306 310 311 312 313 316 319 321 324 327 329 329
251 190 205 91 251 242 239 235 246 250 266 294 306 304 240 217 215 217 209 203 207 213 221 233 244 258 267 281 292 299 303 305 308 309 311 315 317 319 322 325 329 331 336 335
187 142 174 263 285 278 264 256 257 251 254 259 263 274 251 221 215 215 213 213 216 222 228 238 256 263 276 286 292 297 298 303 307 310 315 317 319 321 324 329 334 338 341 337
183 184 189 223 209 216 248 260 271 260 256 263 251 251 243 228 221 212 214 217 217 229 242 252 255 270 283 293 293 293 300 306 310 313 317 319 321 325 330 333 335 341 342 340
Wind_Speed_850mb
8 9 13 27 7 7 27 23 22 6 8 6 2 6 8 6 20 18 18 27 25 24 25 34 30 27 25 20 18 18 23 23 25 24 27 28 29 29 31 31 33 35 40 38
9 8 3 6 12 9 15 21 9 8 3 3 6 7 4 4 9 12 22 28 31 30 28 30 32 34 30 25 21 25 26 19 20 24 26 28 30 31 33 32 33 34 29 32
13 3 3 7 10 9 5 21 14 14 8 11 11 4 9 3 14 17 13 16 21 24 26 26 27 28 30 30 31 29 27 25 26 21 20 23 27 29 31 32 31 30 30 31
11 13 3 18 10 0 10 9 24 34 23 9 3 9 11 8 6 5 11 17 23 32 29 26 24 23 21 19 19 19 18 20 23 24 22 22 23 27 29 31 32 32 35 36
2 11 10 15 3 3 2 12 19 17 11 9 7 5 3 12 10 7 13 31 38 39 39 38 33 28 26 22 17 13 9 6 5 8 12 16 22 26 26 28 29 30 31 33
9 5 8 4 21 16 21 31 25 12 7 2 7 4 8 13 14 10 22 37 36 36 33 29 27 24 20 16 11 8 4 3 5 6 7 10 13 17 21 25 30 33 36 36
8 11 11 8 19 16 10 8 5 6 1 5 9 6 14 28 15 30 38 46 38 33 30 27 22 18 14 9 2 4 6 7 10 11 13 15 18 21 25 30 35 38 40 40
6 4 5 8 4 11 7 3 7 10 8 6 6 12 9 11 40 53 59 52 40 36 31 27 21 16 10 5 3 5 8 12 12 13 15 19 23 26 29 33 36 39 44 47
9 6 6 2 5 3 9 7 1 6 3 5 8 9 6 10 16 43 53 50 45 42 36 26 20 14 10 8 6 4 7 10 12 15 18 20 23 27 31 34 38 42 45 50
6 9 2 4 5 6 5 5 5 2 7 8 7 7 9 23 33 34 39 50 49 42 35 26 19 15 14 10 7 6 7 17 16 17 19 22 25 28 30 32 36 39 43 47
6 3 3 4 5 10 3 2 2 1 7 10 7 11 9 42 41 44 50 52 56 50 40 28 22 18 17 15 12 4 10 19 17 18 21 24 26 29 33 38 42 47 49 52
12 8 5 5 2 3 5 9 13 7 9 4 1 10 2 19 43 54 51 59 54 50 41 30 24 20 21 19 14 6 13 17 16 19 26 28 32 37 42 46 50 54 58 58
9 1 5 4 3 4 8 8 8 1 4 10 8 8 9 9 32 51 56 73 63 53 43 37 32 28 25 21 15 10 14 18 19 23 30 34 39 45 52 56 59 61 65 67
5 5 9 9 6 3 9 11 13 10 5 6 11 10 3 5 19 34 52 76 67 60 49 41 36 31 28 23 19 17 17 20 23 28 34 39 45 51 58 64 67 69 71 74
6 9 4 3 3 0 4 9 13 20 21 12 6 17 10 17 23 52 65 73 67 61 53 48 41 35 33 28 22 22 22 21 27 34 40 46 52 58 65 70 73 75 76 77
2 3 4 5 3 3 8 13 14 12 15 18 16 27 12 24 32 38 60 74 71 67 61 54 44 37 36 30 24 24 23 24 31 39 45 51 59 66 72 76 78 80 83 84
8 10 5 8 6 9 13 19 28 16 15 23 31 39 13 10 26 48 62 77 77 75 66 55 48 40 35 30 25 24 25 30 37 45 51 58 67 75 77 79 82 83 85 87
10 9 5 5 7 6 14 5 8 25 29 29 23 13 29 30 51 56 71 81 77 73 64 56 45 39 33 27 25 24 29 34 44 51 58 65 72 75 77 80 82 84 87 91
4 9 6 8 7 14 17 12 14 14 18 33 46 35 26 32 29 44 57 70 72 73 61 49 37 32 30 27 24 28 33 39 49 55 64 66 70 75 78 81 84 87 92 94
6 10 8 6 10 14 13 2 11 12 18 13 38 35 35 35 11 27 57 53 58 53 44 39 36 34 29 26 30 34 38 47 52 60 63 63 66 72 79 84 88 92 94 98
7 1 12 6 7 18 20 13 14 10 12 15 13 39 45 23 32 14 27 51 48 43 34 34 36 28 26 29 35 40 46 52 56 60 62 64 69 76 81 87 90 95 97 97
17 15 8 6 5 18 28 15 17 11 10 16 11 27 61 58 24 21 19 24 42 46 42 39 35 28 27 32 39 44 51 54 56 58 62 69 76 80 85 91 93 88 90 92
6 15 11 19 15 5 56 6 37 8 16 21 23 8 31 53 50 34 37 33 33 35 38 37 33 32 29 34 39 47 48 52 54 60 69 75 80 87 88 87 86 86 83 82
9 16 6 4 12 24 26 51 38 38 39 29 23 19 13 27 40 38 35 34 30 31 35 35 34 32 30 33 39 45 47 51 58 68 74 81 88 88 84 79 74 72 71 73
10 20 12 11 13 27 36 51 62 57 49 46 39 28 23 24 35 43 39 36 32 32 36 34 32 30 33 36 38 40 44 52 62 69 78 82 81 81 77 69 65 63 61 57
24 17 14 13 30 36 35 33 30 37 50 60 54 41 36 38 38 44 42 37 35 33 35 33 30 32 35 34 35 37 45 54 65 72 73 75 75 71 67 67 68 58 54 50
Wind_Direction_850mb
62 107 161 169 113 112 147 136 131 128 159 141 90 79 344 108 111 105 117 177 179 186 193 202 198 210 226 241 251 255 268 270 266 284 289 295 303 304 306 307 308 307 305 305
71 105 94 93 97 102 141 140 113 75 345 106 135 88 14 33 87 127 129 137 148 145 156 183 199 200 210 238 239 248 263 265 269 279 287 290 293 299 304 310 311 308 307 305
97 108 131 152 120 137 161 173 168 138 133 34 112 333 253 9 111 111 127 154 163 163 165 169 180 193 207 218 233 245 257 257 262 261 272 282 291 295 303 306 306 309 310 309
54 342 168 115 85 207 152 294 160 146 158 173 234 216 229 191 195 136 152 166 156 151 153 157 166 186 201 215 226 229 235 249 260 268 270 270 274 288 295 298 302 309 308 308
23 6 65 82 61 120 107 135 134 137 114 126 202 203 235 160 211 194 180 154 142 135 135 133 132 130 130 134 141 140 139 151 218 266 281 282 279 301 321 324 318 319 321 320
66 27 41 64 65 85 121 91 55 62 51 244 175 187 227 195 184 174 183 162 151 145 143 139 137 138 140 135 131 130 114 40 14 358 341 331 328 330 332 333 333 332 332 331
45 29 335 65 78 27 93 83 67 43 17 235 161 165 256 207 180 170 179 173 165 159 155 152 151 149 149 151 119 14 10 18 30 23 14 3 354 347 341 338 334 332 329 326
132 151 336 325 120 161 145 47 140 151 188 183 158 221 245 220 172 176 176 171 168 164 163 161 161 162 167 170 149 101 64 42 27 11 360 350 343 336 333 331 328 325 323 322
144 101 309 307 347 150 178 182 304 102 41 117 199 275 299 131 151 172 180 181 184 180 173 169 172 175 181 175 158 99 63 33 360 345 339 334 331 331 334 336 334 331 328 325
145 119 254 281 225 81 62 108 148 265 148 216 234 252 233 183 182 182 190 190 185 182 180 182 187 194 196 198 200 151 45 3 1 4 360 353 348 345 343 341 338 335 334 331
151 39 98 52 212 180 108 157 193 142 196 185 191 249 226 190 184 190 192 188 186 188 189 195 201 205 210 218 205 198 340 350 359 3 358 350 347 345 345 345 342 338 336 333
211 121 133 189 253 202 252 204 187 181 202 232 220 274 99 203 193 188 186 189 193 198 195 205 213 220 222 222 213 248 329 336 342 349 346 344 342 341 339 338 336 333 330 329
169 65 85 30 291 78 236 212 221 171 80 211 157 256 352 121 175 189 179 191 197 196 202 210 217 227 227 222 228 260 311 323 328 335 335 336 335 333 331 329 327 325 324 324
152 143 182 186 148 90 194 209 201 187 171 190 231 294 332 176 173 180 189 195 196 198 206 216 224 230 230 229 239 260 293 312 318 326 330 330 330 328 324 321 320 320 319 317
149 180 138 137 102 202 251 244 203 205 220 202 262 221 210 204 194 193 192 194 194 202 210 219 227 233 230 230 243 263 282 302 312 321 323 325 323 320 317 317 317 316 314 313
38 190 114 314 336 319 265 239 236 246 249 256 267 265 221 233 205 185 192 192 199 205 214 221 229 233 230 234 247 260 277 296 309 317 321 319 317 315 315 315 315 316 316 315
126 132 94 265 350 335 306 225 207 210 211 211 225 240 169 196 189 194 195 198 205 210 217 222 230 236 234 237 254 264 281 293 304 313 317 314 314 314 315 316 316 318 319 318
128 101 85 209 20 322 246 237 214 227 245 227 254 199 189 204 209 212 212 205 211 217 222 228 230 230 229 244 257 273 285 295 304 313 313 313 314 314 316 316 319 321 321 319
20 122 104 142 189 297 289 225 190 180 271 222 231 229 204 208 217 234 220 218 225 227 224 229 227 226 230 254 266 276 286 297 304 311 311 314 313 315 317 319 320 320 317 317
47 47 117 102 145 217 239 158 177 149 283 230 219 215 186 153 190 237 219 212 220 217 218 220 220 217 246 261 272 282 294 298 310 309 310 313 315 315 316 317 317 317 315 314
144 151 172 178 213 286 236 178 155 89 245 323 247 208 170 193 213 223 213 211 212 210 219 218 211 235 255 264 277 288 298 309 308 310 312 314 314 314 314 315 315 315 316 317
171 161 183 97 110 270 153 120 172 227 314 326 355 201 203 209 203 201 161 190 212 220 214 212 224 247 260 273 286 297 305 306 308 309 312 313 313 313 314 315 317 320 321 322
227 186 184 188 205 248 182 205 202 298 316 337 336 307 217 218 216 218 223 200 187 198 206 218 235 249 263 276 290 297 302 305 306 310 311 312 313 316 319 321 324 327 329 329
251 190 205 91 251 242 239 235 246 250 266 294 306 304 240 217 215 217 209 203 207 213 221 233 244 258 267 281 292 299 303 305 308 309 311 315 317 319 322 325 329 331 336 335
187 142 174 263 285 278 264 256 257 251 254 259 263 274 251 221 215 215 213 213 216 222 228 238 256 263 276 286 292 297 298 303 307 310 315 317 319 321 324 329 334 338 341 337
183 184 189 223 209 216 248 260 271 260 256 263 251 251 243 228 221 212 214 217 217 229 242 252 255 270 283 293 293 293 300 306 310 313 317 319 321 325 330 333 335 341 342 340